星链-2370 (STARLINK-2370 )

导读

STARLINK-2370是美国SpaceX公司星链星座中的一颗低轨互联网通信卫星,于2021年3月14日发射入轨,星链项目旨在通过构建巨型低轨卫星星座,为全球尤其是偏远地区提供高速低延迟的宽带互联网服务。该卫星属于星链第一代卫星,重量约260kg,配备霍尔推进器,设计寿命5年以上,通过自主控制与离轨销毁技术减少太空垃圾,目前已在轨运行近5年,为全球星链网络的覆盖提供支撑。

基本信息
目录编号:
47910
目录名称:
STARLINK-2370
国际标识:
2021-021BC
轨道中心:
EARTH
卫星名称:
星链-2370
卫星全名:
星链-2370 (STARLINK-2370 )
卫星状态:
在轨 (已飞行2000 天)
发射日期:
2021-03-14 UTC
国别 :
美国 (US)
星等 :
--
轨道信息
数据来源 国际轨道数据 AOE轨道数据
星历时间 2026-09-04T13:22:35+0800
10小时前
查看轨道信息
2026-09-04T00:00:00+0800
1天前
查看轨道信息
半长轴 6848.837km 6848.817km
偏心率 0.0001466 0.0001374
轨道倾角 53.159° 53.159°
近地点辐角 85.883° 82.645°
升交点赤经 157.288° 159.883°
平近点角 274.234° 82.442°
近地点 469.695km 469.738km
远地点 471.705km 471.622km
周期 94.012分钟 94.012分钟
每日圈数 15.317137 15.317203
详细信息
固有亮度:
5
最大亮度:
2.5
卫星平台:
Starlink V1.0
覆盖范围:
全球
运营商:
太空探索技术公司
运营商所在国:
美国
制造商(研发单位):
太空探索技术公司
制造商所在国:
美国
使用方式:
暂无
卫星简介
星链(Starlink)计划是由太空探索技术公司(SpaceX)提出的一个巨型低轨卫星互联网星座项目,计划在2019年至2024年间在太空搭建由约1.2万颗卫星组成的“星链”网络,其中1584颗将部署在地球上空550千米处的近地轨道,并从2020年开始工作。该卫星仍在工作。
2D轨道图
3D轨道图
轨道高度分析图
轨道倾角分析图
轨道综合分析图
查看轨道综合分析图
交会数据列表
事件ID 空间交会对象 最接近时刻(TCA) 交会距离 交会风险概率(CRP) 交会风险指数(CRI) 操作
CDM_260905-200204-791006-489521
OBJECT V (64895)
2026-09-05T
20:02:54+0000
0.817 km
远距离
3.923574E-5 中风险 0.67
CDM_260905-152004-791006-488221
OBJECT G (64882)
2026-09-05T
15:20:51+0000
1.129 km
极远距离
1.296022E-5 中风险 0.57
CDM_260906-165304-791006-189521
OBJECT B (61895)
2026-09-06T
16:53:52+0000
2.382 km
极远距离
1.919798E-6 低风险 0.41
CDM_260904-163004-791006-771122
2026-09-04T
16:30:54+0000
2.571 km
极远距离
1.653578E-6 低风险 0.39
CDM_260903-025804-791006-145522
2026-09-03T
02:58:31+0000
2.811 km
极远距离
1.40489E-6 低风险 0.38
CDM_260904-213104-791006-525421
2026-09-04T
21:31:38+0000
2.959 km
极远距离
1.30533E-6 低风险 0.37